Location: Newark
(41.7772°N, 74.7403°W)
Time: 18:44:24
(UTC+00:00)

Explorer 7 - All Passes

Search period start: 06 June 2020 00:00
Search period end: 16 June 2020 00:00
Orbit: 485 x 679 km, 50.3° (Epoch: 06 June)

Date Brightness Start Highest point End Pass type
(mag) Time Alt. Az. Time Alt. Az. Time Alt. Az.
06 Jun - 00:17:02 10° SSW 00:21:22 32° SE 00:25:40 10° ENE daylight
06 Jun - 01:56:57 10° WSW 02:01:49 63° NNW 02:06:33 10° NE visible
06 Jun - 03:38:49 10° WNW 03:43:04 30° N 03:47:10 10° NE visible
06 Jun - 05:20:20 10° NW 05:24:36 33° NNE 05:28:38 10° ENE visible
06 Jun - 07:01:03 10° WNW 07:05:37 90° E 07:09:51 10° ESE visible
06 Jun - 08:42:52 10° W 08:45:34 16° SW 08:48:10 10° SSW visible
07 Jun - 00:21:19 10° SSW 00:26:03 49° SE 00:30:43 10° ENE daylight
07 Jun - 02:02:00 10° W 02:06:44 47° NNW 02:11:20 10° NE visible
07 Jun - 03:43:58 10° WNW 03:48:08 28° N 03:52:09 10° ENE visible
07 Jun - 05:25:11 10° NW 05:29:36 39° NNE 05:33:46 10° E visible
07 Jun - 07:05:54 10° WNW 07:10:23 59° SW 07:14:33 10° SE visible
07 Jun - 22:48:01 10° SSE 22:50:46 15° SE 22:53:31 10° E daylight
08 Jun - 00:25:53 10° SW 00:30:46 73° SE 00:35:37 10° ENE daylight
08 Jun - 02:07:08 10° W 02:11:43 38° NNW 02:16:09 10° NE visible
08 Jun - 03:49:02 10° WNW 03:53:13 29° N 03:57:14 10° ENE visible
08 Jun - 05:30:00 10° NW 05:34:34 51° NNE 05:38:52 10° E visible
08 Jun - 07:10:53 10° WNW 07:15:04 37° SW 07:18:59 10° SSE visible
08 Jun - 22:51:27 10° S 22:55:19 24° SE 22:59:12 10° E daylight
09 Jun - 00:30:40 10° WSW 00:35:35 79° NNW 00:40:27 10° ENE daylight
09 Jun - 02:12:18 10° WNW 02:16:44 33° NNW 02:21:01 10° NE visible
09 Jun - 03:54:00 10° NW 03:58:17 31° N 04:02:22 10° ENE visible
09 Jun - 05:34:47 10° NW 05:39:28 70° NNE 05:43:51 10° ESE visible
09 Jun - 07:16:04 10° W 07:19:40 24° SW 07:23:05 10° S visible
09 Jun - 22:55:28 10° SSW 22:59:56 36° SE 23:04:25 10° ENE daylight
10 Jun - 00:35:36 10° WSW 00:40:27 58° NNW 00:45:15 10° NE daylight
10 Jun - 02:17:28 10° WNW 02:21:47 30° N 02:25:57 10° NE visible
10 Jun - 03:58:54 10° NW 04:03:19 35° NNE 04:07:31 10° E visible
10 Jun - 05:39:36 10° WNW 05:44:17 81° SW 05:48:40 10° SE visible
10 Jun - 07:21:43 10° W 07:24:12 15° SW 07:26:35 10° SSW visible
10 Jun - 21:24:14 10° SE 21:24:49 10° SE 21:25:24 10° ESE daylight
10 Jun - 22:59:50 10° SW 23:04:37 55° SE 23:09:24 10° ENE daylight
11 Jun - 00:40:40 10° W 00:45:23 45° NNW 00:50:02 10° NE daylight
11 Jun - 02:22:35 10° WNW 02:26:51 29° N 02:30:59 10° ENE visible
11 Jun - 04:03:44 10° NW 04:08:19 43° NNE 04:12:39 10° E visible
11 Jun - 05:44:29 10° WNW 05:49:02 53° SW 05:53:17 10° SE visible
11 Jun - 21:26:10 10° S 21:29:18 17° SE 21:32:28 10° E daylight
11 Jun - 23:04:27 10° SW 23:09:22 82° SE 23:14:17 10° ENE daylight
12 Jun - 00:45:49 10° W 00:50:22 37° NNW 00:54:52 10° NE daylight
12 Jun - 02:27:37 10° WNW 02:31:55 30° N 02:36:04 10° ENE visible
12 Jun - 04:08:32 10° NW 04:13:15 56° NNE 04:17:43 10° ESE visible
12 Jun - 05:49:30 10° WNW 05:53:41 34° SW 05:57:39 10° SSE visible
12 Jun - 21:29:48 10° S 21:33:51 27° SE 21:37:58 10° ENE daylight
12 Jun - 23:09:18 10° WSW 23:14:11 72° NNW 23:19:06 10° NE daylight
13 Jun - 00:50:59 10° WNW 00:55:24 32° N 00:59:45 10° NE daylight
13 Jun - 02:32:35 10° NW 02:36:59 33° N 02:41:13 10° ENE visible
13 Jun - 04:13:19 10° WNW 04:18:08 79° NNE 04:22:39 10° ESE visible
13 Jun - 05:54:46 10° W 05:58:16 21° SW 06:01:37 10° S visible
13 Jun - 21:33:57 10° SSW 21:38:29 41° SE 21:43:06 10° ENE daylight
13 Jun - 23:14:17 10° WSW 23:19:05 53° NNW 23:23:53 10° NE daylight
14 Jun - 00:56:08 10° WNW 01:00:28 30° N 01:04:43 10° ENE daylight
14 Jun - 02:37:27 10° NW 02:42:00 38° NNE 02:46:23 10° E visible
14 Jun - 04:18:09 10° WNW 04:22:56 72° SW 04:27:26 10° SE visible
14 Jun - 06:00:38 10° W 06:02:46 13° SW 06:04:52 10° SSW visible
14 Jun - 20:01:34 10° SSE 20:03:20 12° SE 20:05:07 10° ESE daylight
14 Jun - 21:38:24 10° SW 21:43:10 63° SE 21:48:03 10° ENE daylight
14 Jun - 23:19:21 10° W 23:24:02 42° NNW 23:28:41 10° NE daylight
15 Jun - 01:01:14 10° WNW 01:05:32 29° N 01:09:46 10° ENE visible
15 Jun - 02:42:16 10° NW 02:46:59 47° NNE 02:51:30 10° E visible
15 Jun - 04:23:04 10° WNW 04:27:39 47° SW 04:31:59 10° SSE visible
15 Jun - 20:04:26 10° S 20:07:50 19° SE 20:11:18 10° E daylight
15 Jun - 21:43:05 10° WSW 21:47:57 90° NW 21:52:53 10° ENE daylight
15 Jun - 23:24:31 10° W 23:29:01 35° NNW 23:33:32 10° NE daylight
